Regional Weather Roundup
Issued by NWS Spokane, WA

Home | Current Version | Previous Version | Text Only | Print | Product List | Glossary On
Versions: 1 2 3 4 5 6 7 8 9 10 11 12 13 14 15 16 17 18 19 20 21 22 23 24 25 26 27 28 29 30 31 32 33 34 35 36 37 38 39 40 41 42 43 44 45 46 47 48 49 50
446
NZUS01 KOTX 230310
RWROTX

Eastern Washington/Northern Idaho Roundup
National Weather Service, Spokane WA
800 PM PDT FRI SEP 22 2017

Note: "fair" indicated few or no clouds below 12,000 feet with no
significant weather and/or obstructions to visibility.

...Northeast Washington and Northern Idaho Panhandle...

CITY           SKY/WX    TMP DP  RH WIND       PRES   REMARKS
Spokane Intl   MOCLDY    54  38  54 N3        30.01R
Spokane Downto CLOUDY    53  41  63 CALM      30.01R
Coeur d Alene  CLOUDY    50  38  63 E5        30.02R
Deer Park      MOCLDY    48  36  63 CALM      30.01R
Sandpoint      CLOUDY    50  36  57 NE5       30.01S
Bonners Ferry  CLOUDY    48  37  66 CALM      30.02R

...Southeast Washington and southern Idaho Panhandle...

CITY           SKY/WX    TMP DP  RH WIND       PRES   REMARKS
Walla Walla    CLOUDY    56  45  66 CALM      30.02R
Pullman/Moscow CLOUDY    49  40  71 E9        30.03R
Lewiston       MOCLDY    54  43  66 E15       30.01R
Lowell           N/A     47  42  83 CALM      30.04R
Grangeville    CLOUDY    43  41  93 CALM      30.02R

...Columbia Basin...

CITY           SKY/WX    TMP DP  RH WIND       PRES   REMARKS
Ephrata        CLOUDY    54  38  54 SW6       29.99R
Moses Lake     MOCLDY    58  40  51 SW5       30.00R
Pasco          MOCLDY    62  42  47 SW3       30.01R
Richland       MOCLDY    58  46  63 CALM      30.01S
Hermiston      MOCLDY    59  43  55 SW6       30.01R
Pendleton      PTCLDY    54  39  57 CALM      30.02R

...East Slopes Cascades...

CITY           SKY/WX    TMP DP  RH WIND       PRES   REMARKS
The Dalles     CLOUDY    61  47  59 NW7       30.02R
Yakima         CLOUDY    59  43  55 CALM      30.01R
Ellensburg     CLOUDY    56  41  57 N6        30.01R
Wenatchee      CLOUDY    58  42  55 NE5       29.98R
Omak           CLOUDY    57  39  51 S5        29.97S
Sunnyside      CLOUDY    52  47  81 NE3       30.01R

...Southern British Columbia...

CITY           SKY/WX    TMP DP  RH WIND       PRES   REMARKS
Penticton      MOCLDY    59  43  55 CALM      29.95R
Castlegar      CLOUDY    52  43  71 E3        29.99R
Cranbrook      CLOUDY    46  30  53 SE3       30.02S
Osoyoos          N/A     61  37  41 E2          N/A
Creston          N/A     50  39  66 E5          N/A

...Western Montana...

CITY           SKY/WX    TMP DP  RH WIND       PRES   REMARKS
Libby            N/A     46  39  76 CALM      30.02R
Missoula       PTCLDY    38  35  89 N3        30.04S

...Neighboring Cities...

CITY           SKY/WX    TMP DP  RH WIND       PRES   REMARKS
Seattle        MOCLDY    63  46  54 CALM      30.04R
Portland       CLOUDY    61  49  64 CALM      30.04R
Boise          CLEAR     47  40  76 CALM      29.99R
Great Falls    CLOUDY    37  34  89 NW6       30.08S
Calgary        CLOUDY    39  34  81 SE7       30.06S



USA.gov is the U.S. government's official web portal to all federal, state and local government web resources and services.